Regional Weather Roundup
Issued by NWS Goodland, KS

Home | Current Version | Previous Version | Graphics & Text | Print | Product List | Glossary On
Versions: 1 2 3 4 5 6 7 8 9 10 11 12 13 14 15 16 17 18 19 20 21 22 23 24 25 26 27 28 29 30 31 32 33 34 35 36 37 38 39 40 41 42 43 44 45 46 47 48 49 50
000
ASUS43 KGLD 271608
RWRGLD

GOODLAND FORECAST AREA HOURLY WEATHER ROUNDUP
NATIONAL WEATHER SERVICE GOODLAND KS
1000 AM MDT WED AUG 27 2014

...OFFICIAL OBSERVATIONS...

CITY           SKY/WX    TMP DP  RH WIND       PRES   REMARKS
GOODLAND KS    PTSUNNY   70  65  84 S15       30.15S
HILL CITY KS   PTSUNNY   78  63  59 S10G18    30.12F
IMPERIAL NEB   CLOUDY    71  64  78 S14       30.13S
MCCOOK NEB     PTSUNNY   74  68  81 SE10      30.13S
AKRON CO       CLOUDY    69  60  73 S15G25    30.16S
BURLINGTON CO  CLOUDY    69  62  78 S14G28    30.15F
LIMON CO       MOSUNNY   66  58  75 S14       30.20F
$$

...UNOFFICIAL OBSERVATIONS...

CITY           SKY/WX    TMP DP  RH WIND       PRES   REMARKS
COLBY KS       MOSUNNY   73  68  83 SE22G29   30.14F
GOVE KS          N/A     74  32  21 CALM        N/A
NORTON KS      SUNNY     73  64  73 SE7       30.12R
SHARON SPRINGS   N/A     69  66  90 S12         N/A
WAKEENEY KS      N/A     75  61  61 MISG        N/A
KIT CARSON CO    N/A     70  62  77 MISG        N/A
YUMA CO          N/A     67  62  84 SE12        N/A
$$



USA.gov is the U.S. government's official web portal to all federal, state and local government web resources and services.